Location: *
(58.7167°N, 26.1833°E)
Time: 09:04:43
(UTC+00:00)

Spot 2 Rocket - Pass Details

Date: 25 August 2019
Orbit: 758 x 772 km, 98.6° (Epoch: 22 October)

Event Time Altitude Azimuth Distance (km) Brightness Sun altitude
Exits shadow 18:33:34 - 160° (SSE) 2,929 6.0 -7.3°
Reaches altitude 10° 18:35:07 10° 160° (SSE) 2,307 5.5 -7.5°
Maximum altitude 18:40:13 90° 69° (ENE) 775 3.6 -8.0°
Drops below altitude 10° 18:45:20 10° 343° (NNW) 2,314 6.9 -8.6°
Sets 18:47:39 0° 343° (NNW) 3,242 7.7 -8.8°
